[[{"header":{"parameterUnit":"m.s-1","parameterCategory":1,"la1":30.2991,"la2":30.254,"lo1":-89.0895,"lo2":-89.0444,"dy":0.0017,"dx":0.0017,"nx":28,"ny":28,"refTime":"2023-07-22T03:00:00:Z","depth":0,"parameterNumber":2,"parameterNumberName":"U-component_of_WINDS"},"data":[0,0,0,0,0,0,0,0,0,0,0,0,0,0,0,0,0,0,0,0,0,0,0,0,0,0,0,0,0,0,0,0,0,0,0,0,0,0,0,0,0,0,0,0,0,0,0,0,0,0,0,0,0,0,0,0,0,0,4.4372,4.4373,0,4.4524,4.4525,4.4527,4.4488,4.4485,4.4482,4.4479,4.4637,4.4644,4.4651,0,0,0,0,0,0,0,0,0,0,0,0,0,4.4049,4.4055,4.4371,4.4373,4.4375,4.4523,4.4526,4.4528,4.4488,4.4484,4.4481,4.4477,4.4635,4.4643,4.4651,0,0,0,0,0,0,0,0,0,0,0,0,0,4.4194,4.4057,4.4371,4.4373,4.4375,4.4523,4.4526,4.4528,4.4489,4.4484,4.448,4.4476,4.4632,4.4642,4.4652,4.4808,0,0,4.4685,4.4689,0,0,0,0,0,0,0,0,4.4186,4.4206,4.4371,4.4373,4.4376,4.4482,4.447,4.4622,4.449,4.4446,4.4479,4.4473,4.4589,4.4603,4.4642,4.4816,4.4822,4.4686,4.4692,4.4697,4.47,0,0,0,0,0,0,0,4.4176,4.4199,4.4432,4.4374,4.4376,4.4368,4.4383,4.4499,4.4541,4.4449,4.4447,4.4465,4.459,4.4631,4.4645,4.4825,4.4685,4.4695,4.4701,4.4705,4.5136,4.5141,0,0,0,0,0,0,4.4164,4.4191,4.4427,4.4436,4.4268,4.4377,4.4395,4.4452,4.454,4.4549,4.4469,4.4463,4.4616,4.4633,4.465,4.4839,4.4696,4.4706,4.4712,4.5131,4.5137,4.5143,0,0,0,0,0,0,4.4157,4.4185,4.4421,4.4313,4.4342,4.4387,4.4453,4.4458,4.45,4.4555,4.4562,4.4504,4.4613,4.4636,4.4769,4.4844,4.4711,4.4721,4.5125,4.5133,4.514,4.5218,0,0,0,0,0,0,4.4148,4.4183,4.4242,4.4315,4.4348,4.4537,4.4457,4.4464,4.4518,4.4511,4.4589,4.4598,4.4611,4.4754,4.478,4.4856,4.4729,4.5118,4.5128,4.5137,4.5209,4.5227,4.5243,0,0,0,0,0,4.4136,4.4258,4.4245,4.4274,4.4423,4.4541,4.456,4.4572,4.4524,4.4584,4.4619,4.4595,4.4832,4.4768,4.4797,4.4878,4.5114,4.5126,4.5137,4.5201,4.5224,4.5243,0,0,0,0,0,0,4.4193,4.4267,4.4254,4.4402,4.4466,4.4534,4.461,4.4595,4.4674,4.4665,4.4677,4.4695,4.4832,4.4868,4.4796,4.5034,4.4966,4.4984,4.5005,4.5027,4.5044,4.5032,4.4738,0,0,0,0,0,4.4223,4.4312,4.4372,4.4498,4.453,4.4565,4.4617,4.4621,4.4687,4.4713,4.4759,4.4825,4.4914,4.4972,4.5057,4.5214,4.5231,4.5284,4.5301,4.5315,4.533,4.5417,4.5442,4.518,4.518,4.518,0,0,4.4285,4.4337,4.4392,4.451,4.456,4.4653,4.4587,4.4688,4.4758,4.4729,4.4858,4.4894,4.4968,4.5115,4.5181,4.5149,4.5406,4.533,4.534,4.5348,4.5432,4.5456,4.5478,4.5188,4.5187,4.5186,0,0,4.4446,4.4494,4.4604,4.4655,4.4731,4.4753,4.478,4.4851,4.4873,4.5003,4.4984,4.5067,4.522,4.5274,4.5322,4.5505,4.5487,4.5533,4.5622,4.5707,4.5728,4.5746,4.5812,4.5836,4.5548,4.5548,4.5548,0,4.4515,4.4653,4.4663,4.4766,4.4819,4.4797,4.4909,4.4958,4.5058,4.5096,4.5058,4.525,4.5299,4.5458,4.5503,4.5542,4.5573,4.5524,4.5724,4.5742,4.5759,4.5823,4.5848,4.5553,4.5553,4.5552,4.5552,0,4.4734,4.483,4.491,4.5007,4.5069,4.5176,4.5203,4.5265,4.5263,4.529,4.5424,4.5481,4.5578,4.5616,4.5616,4.5776,4.5754,4.572,4.5652,4.5789,4.5849,4.5873,4.5561,4.5559,4.5557,4.5556,0,0,4.4934,4.5036,4.5065,4.5109,4.5191,4.5266,4.5373,4.5467,4.5521,4.5591,4.5681,4.5812,4.5781,4.5835,4.5841,4.5916,4.6058,4.5873,4.5875,4.5906,4.624,4.6265,4.6293,4.6046,4.6051,4.6055,4.6234,0,4.5103,4.529,4.5303,4.5472,4.5562,4.5543,4.5637,4.5698,4.5726,4.5807,4.5839,4.5932,4.5884,4.5916,4.5989,4.6026,4.6126,4.6013,4.6132,4.6136,4.6114,4.6324,4.6351,4.6517,4.6257,4.6261,4.6264,0,4.5325,4.5402,4.558,4.5651,4.5689,4.5772,4.586,4.5938,4.6008,4.6023,4.6084,4.608,4.6191,4.6119,4.6273,4.6196,4.6246,4.6271,4.6278,4.629,4.6208,4.6342,4.657,4.6595,4.6301,4.6298,4.6295,0,4.5455,4.5603,4.5729,4.5767,4.5852,4.5911,4.595,4.6015,4.6071,4.6149,4.6185,4.6275,4.6324,4.6394,4.6415,4.636,4.6569,4.6498,4.6586,4.6585,4.663,4.6627,4.687,4.6662,4.6661,4.6661,4.666,0,4.5643,4.5753,4.5788,4.5866,4.5989,4.6003,4.6125,4.616,4.6218,4.6303,4.6292,4.6373,4.6395,4.648,4.6497,4.6622,4.6644,4.6661,4.6664,4.6662,4.666,4.6695,4.6684,4.6667,4.6666,4.6665,4.6664,0,4.5808,4.5836,4.5973,4.6042,4.6062,4.615,4.621,4.6286,4.6313,4.642,4.6447,4.6489,4.6589,4.6616,4.6735,4.6747,4.6895,4.6887,4.6871,4.6871,4.6957,4.6949,4.7231,4.727,4.7036,4.7038,4.704,0,4.5927,4.6011,4.609,4.6145,4.6186,4.6276,4.6334,4.6351,4.6411,4.6498,4.6563,4.6661,4.674,4.69,4.6942,4.7033,4.7028,4.7121,4.7042,4.7038,4.7031,4.7026,4.7035,4.7136,4.7139,4.7141,4.7142,0,4.6134,4.6144,4.6226,4.6314,4.6383,4.6453,4.6521,4.6568,4.6595,4.6663,4.6764,4.6826,4.6947,4.7045,4.7138,4.7178,4.7166,4.7167,4.7192,4.7191,4.7178,4.7187,4.6912,4.716,4.7158,4.7157,4.7156,4.7155,4.628,4.6354,4.6421,4.6514,4.6567,4.663,4.6705,4.6741,4.6825,4.6925,4.6931,4.7041,4.711,4.7233,4.7278,4.7366,4.7338,4.7375,4.7384,4.7393,4.74,4.7164,4.7383,4.7382,4.7382,4.7381,4.7381,0,4.6487,4.6529,4.6615,4.6709,4.6783,4.6763,4.6838,4.6901,4.6997,4.7062,4.714,4.7257,4.7352,4.7402,4.7497,4.7557,4.7554,4.7581,4.7577,4.7587,4.7419,4.7388,4.7583,4.7582,4.7582,4.7582,4.7582,4.7582,4.6604,4.6729,4.6747,4.6898,4.694,4.7047,4.7091,4.715,4.7202,4.7333,4.7411,4.7443,4.7503,4.7602,4.7689,4.7701,4.7737,4.7768,4.7777,4.7619,4.7599,4.7579,4.755,4.7776,4.7776,4.7938,4.794,4.7941]},{"header":{"parameterUnit":"m.s-1","parameterCategory":1,"la1":30.2991,"la2":30.254,"lo1":-89.0895,"lo2":-89.0444,"dy":0.0017,"dx":0.0017,"nx":28,"ny":28,"refTime":"2023-07-22T03:00:00:Z","depth":0,"parameterNumber":3,"parameterNumberName":"V-component_of_WINDS"},"data":[0,0,0,0,0,0,0,0,0,0,0,0,0,0,0,0,0,0,0,0,0,0,0,0,0,0,0,0,0,0,0,0,0,0,0,0,0,0,0,0,0,0,0,0,0,0,0,0,0,0,0,0,0,0,0,0,0,0,-0.751,-0.751,0,-0.7522,-0.7522,-0.7522,-0.7514,-0.7513,-0.7513,-0.7513,-0.7525,-0.7525,-0.7526,0,0,0,0,0,0,0,0,0,0,0,0,0,-0.7477,-0.7478,-0.751,-0.751,-0.751,-0.7522,-0.7522,-0.7523,-0.7514,-0.7513,-0.7513,-0.7512,-0.7525,-0.7525,-0.7526,0,0,0,0,0,0,0,0,0,0,0,0,0,-0.7491,-0.7478,-0.751,-0.7507,-0.7507,-0.7522,-0.7522,-0.7523,-0.7514,-0.7513,-0.7513,-0.7512,-0.7524,-0.7525,-0.7526,-0.7544,0,0,-0.7529,-0.753,0,0,0,0,0,0,0,0,-0.749,-0.7492,-0.7507,-0.7507,-0.7507,-0.7516,-0.7515,-0.753,-0.7514,-0.7511,-0.7513,-0.7512,-0.7522,-0.7523,-0.7527,-0.7545,-0.7545,-0.753,-0.753,-0.7531,-0.7531,0,0,0,0,0,0,0,-0.7489,-0.7491,-0.7515,-0.7507,-0.7507,-0.7505,-0.7506,-0.7518,-0.752,-0.7511,-0.7511,-0.7513,-0.7522,-0.7526,-0.7527,-0.7546,-0.753,-0.753,-0.7531,-0.7531,-0.7579,-0.7579,0,0,0,0,0,0,-0.7488,-0.7491,-0.7514,-0.7515,-0.7497,-0.7506,-0.7508,-0.7514,-0.752,-0.752,-0.7513,-0.7512,-0.7525,-0.7526,-0.7528,-0.7549,-0.7531,-0.7532,-0.7532,-0.7578,-0.7579,-0.758,0,0,0,0,0,0,-0.7488,-0.7491,-0.7514,-0.7503,-0.7505,-0.7507,-0.7514,-0.7514,-0.7518,-0.7521,-0.7521,-0.7517,-0.7524,-0.7526,-0.754,-0.7549,-0.7532,-0.7533,-0.7577,-0.7578,-0.7579,-0.7591,0,0,0,0,0,0,-0.7487,-0.749,-0.7497,-0.7503,-0.7506,-0.7526,-0.7515,-0.7515,-0.752,-0.7519,-0.7524,-0.7525,-0.7524,-0.7539,-0.7541,-0.755,-0.7534,-0.7577,-0.7578,-0.7579,-0.759,-0.7593,-0.7595,0,0,0,0,0,-0.7486,-0.75,-0.7498,-0.7501,-0.7515,-0.7527,-0.7529,-0.7527,-0.7521,-0.7528,-0.753,-0.7525,-0.7548,-0.754,-0.7543,-0.7552,-0.7576,-0.7578,-0.7579,-0.7589,-0.7592,-0.7595,0,0,0,0,0,0,-0.7495,-0.7501,-0.7498,-0.7515,-0.752,-0.7525,-0.7534,-0.7531,-0.7538,-0.7537,-0.7535,-0.7536,-0.7551,-0.7553,-0.7544,-0.757,-0.7561,-0.7563,-0.7568,-0.7571,-0.7573,-0.7572,-0.7535,0,0,0,0,0,-0.75,-0.7509,-0.7513,-0.7527,-0.753,-0.7532,-0.7537,-0.7536,-0.7541,-0.7543,-0.7546,-0.7552,-0.756,-0.7566,-0.7574,-0.7591,-0.7592,-0.7599,-0.7601,-0.7603,-0.7604,-0.7613,-0.7616,-0.7584,-0.7584,-0.7584,0,0,-0.7508,-0.7512,-0.7518,-0.753,-0.7534,-0.7543,-0.7534,-0.7544,-0.7551,-0.7545,-0.7558,-0.7561,-0.7567,-0.7582,-0.7589,-0.7585,-0.7614,-0.7605,-0.7606,-0.7607,-0.7615,-0.7618,-0.7621,-0.7585,-0.7585,-0.7585,0,0,-0.7528,-0.7532,-0.7545,-0.7549,-0.7556,-0.7556,-0.756,-0.7565,-0.7566,-0.758,-0.7575,-0.7584,-0.7598,-0.7603,-0.7607,-0.7629,-0.7625,-0.7632,-0.7643,-0.7652,-0.7655,-0.7657,-0.7664,-0.7667,-0.7634,-0.7634,-0.7634,0,-0.7537,-0.7552,-0.7551,-0.7562,-0.7567,-0.7562,-0.7575,-0.7579,-0.7588,-0.7591,-0.7586,-0.7605,-0.7608,-0.7625,-0.763,-0.7634,-0.7637,-0.7631,-0.7655,-0.7657,-0.7659,-0.7666,-0.7669,-0.7634,-0.7634,-0.7634,-0.7634,0,-0.7563,-0.7573,-0.7582,-0.7591,-0.7597,-0.7609,-0.7609,-0.7616,-0.7614,-0.7616,-0.7629,-0.7634,-0.7643,-0.7647,-0.7645,-0.7663,-0.766,-0.7655,-0.7645,-0.7663,-0.7669,-0.7672,-0.7636,-0.7635,-0.7635,-0.7635,0,0,-0.7588,-0.7597,-0.76,-0.7604,-0.7611,-0.7619,-0.7631,-0.7639,-0.7645,-0.7651,-0.766,-0.7673,-0.7669,-0.7673,-0.7672,-0.768,-0.7697,-0.7674,-0.7674,-0.7678,-0.7716,-0.7719,-0.7722,-0.7695,-0.7695,-0.7696,-0.7716,0,-0.7608,-0.7628,-0.7628,-0.7646,-0.7655,-0.7651,-0.7661,-0.7667,-0.7668,-0.7676,-0.7678,-0.7687,-0.7681,-0.7684,-0.7691,-0.7693,-0.7705,-0.7692,-0.7702,-0.7703,-0.77,-0.7726,-0.7729,-0.7748,-0.7718,-0.7719,-0.7719,0,-0.7634,-0.7641,-0.7661,-0.7666,-0.767,-0.7679,-0.7687,-0.7695,-0.7701,-0.7702,-0.7707,-0.7705,-0.7717,-0.7708,-0.7723,-0.7715,-0.7719,-0.7721,-0.7721,-0.7722,-0.7711,-0.7726,-0.7754,-0.7756,-0.7723,-0.7723,-0.7722,0,-0.765,-0.7665,-0.7678,-0.7682,-0.7689,-0.7695,-0.7699,-0.7704,-0.7709,-0.7717,-0.772,-0.7728,-0.7733,-0.7739,-0.7739,-0.7733,-0.7755,-0.7746,-0.7755,-0.7755,-0.7759,-0.7759,-0.7787,-0.7764,-0.7763,-0.7763,-0.7763,0,-0.7671,-0.7683,-0.7685,-0.7693,-0.7706,-0.7706,-0.7719,-0.7722,-0.7727,-0.7735,-0.7733,-0.7741,-0.7741,-0.7749,-0.7749,-0.7762,-0.7764,-0.7764,-0.7764,-0.7764,-0.7764,-0.7766,-0.7765,-0.7764,-0.7764,-0.7764,-0.7764,0,-0.7691,-0.7693,-0.7707,-0.7713,-0.7715,-0.7724,-0.7729,-0.7737,-0.7739,-0.7749,-0.7752,-0.7754,-0.7764,-0.7765,-0.7776,-0.7776,-0.7791,-0.779,-0.7789,-0.7788,-0.7797,-0.7796,-0.7827,-0.7831,-0.7806,-0.7806,-0.7806,0,-0.7704,-0.7713,-0.772,-0.7726,-0.7729,-0.7738,-0.7744,-0.7744,-0.775,-0.7758,-0.7765,-0.7774,-0.7781,-0.7796,-0.7799,-0.7807,-0.7806,-0.7816,-0.7807,-0.7807,-0.7805,-0.7804,-0.7805,-0.7818,-0.7818,-0.7818,-0.7819,0,-0.7727,-0.7728,-0.7736,-0.7745,-0.7751,-0.7758,-0.7764,-0.7769,-0.777,-0.7777,-0.7787,-0.7793,-0.7804,-0.7813,-0.7821,-0.7824,-0.7822,-0.7822,-0.7824,-0.7824,-0.7822,-0.7823,-0.7793,-0.7821,-0.782,-0.782,-0.782,-0.782,-0.7743,-0.7751,-0.7757,-0.7766,-0.7771,-0.7777,-0.7785,-0.7788,-0.7796,-0.7805,-0.7805,-0.7816,-0.7822,-0.7833,-0.7837,-0.7845,-0.7841,-0.7845,-0.7846,-0.7846,-0.7847,-0.7822,-0.7846,-0.7846,-0.7846,-0.7846,-0.7846,0,-0.7766,-0.777,-0.7778,-0.7787,-0.7794,-0.7792,-0.7799,-0.7805,-0.7814,-0.782,-0.7828,-0.7839,-0.7848,-0.7851,-0.786,-0.7866,-0.7865,-0.7868,-0.7867,-0.7868,-0.785,-0.7846,-0.7869,-0.7869,-0.7869,-0.7869,-0.7869,-0.7869,-0.7778,-0.7791,-0.7792,-0.7807,-0.7811,-0.7822,-0.7826,-0.7831,-0.7836,-0.7849,-0.7856,-0.7859,-0.7864,-0.7873,-0.7881,-0.7881,-0.7884,-0.7888,-0.7888,-0.7871,-0.7869,-0.7867,-0.7864,-0.7889,-0.7889,-0.7905,-0.7905,-0.7906]}]]